Weather History for Wadena, MN

Change the Weather History Date:

Friday, June 28, 2013

  Actual Average Record
Temperature  
Mean Temperature 68 °F -  
Max Temperature 75 °F 77 °F 94 °F (1964)
Min Temperature 60 °F 55 °F 44 °F (1951)
Cooling Degree Days 2    
Growing Degree Days 18 (Base 50)    
Moisture  
Dew Point 56 °F    
Average Humidity 70    
Maximum Humidity 82    
Minimum Humidity 50    
Precipitation  
Precipitation 0.00 in - - ()
Sea Level Pressure  
Sea Level Pressure 29.86 in    
Wind  
Wind Speed 12 mph (NW)    
Max Wind Speed 24 mph    
Max Gust Speed 33 mph    
Visibility 10 miles    
Events      
Averages and records for this station are not official NWS values.
T = Trace of Precipitation, MM = Missing Value Source: NWS Daily Summary

Daily Weather History Graph

Daily Weather History Graph

Search for Another Location

Airport:

Trip Planner

Search our weather history database for the weather conditions in past years. The results will help you decide how hot, cold, wet, or windy it might be!

Date:

Astronomy

Jun. 28, 2013 Rise Set
Actual Time 5:30 AM CDT 9:17 PM CDT
Civil Twilight 4:51 AM CDT 9:56 PM CDT
Nautical Twilight 3:58 AM CDT 10:49 PM CDT
Astronomical Twilight 2:43 AM CDT 12:03 AM CDT
Moon No Moon Rise 12:02 PM CDT (6/28)
Length of Visible Light 17h 04m
Length of Day
15h 46m
Waning Gibbous, 66% of the Moon is Illuminated
Jun 28
Waning Gibbous
Jun 29
Last Quarter
Jul 8
New
Jul 15
First Quarter
Jul 22
Full

Hourly Weather History & Observations

Time (CDT) Temp. Dew Point Humidity Pressure Visibility Wind Dir Wind Speed Gust Speed Precip Events Conditions
12:14 AM 64.4 °F 55.4 °F 73% 29.85 in 10.0 mi WNW 6.9 mph - N/A   Clear
12:35 AM 64.4 °F 55.4 °F 73% 29.84 in 10.0 mi West 4.6 mph - N/A   Clear
12:52 AM 64.4 °F 55.4 °F 73% 29.84 in 10.0 mi West 5.8 mph - N/A   Clear
1:35 AM 64.4 °F 55.4 °F 73% 29.84 in 10.0 mi West 8.1 mph - N/A   Scattered Clouds
1:52 AM 64.4 °F 55.4 °F 73% 29.84 in 10.0 mi WNW 8.1 mph - N/A   Scattered Clouds
2:15 AM 64.4 °F 55.4 °F 73% 29.84 in 10.0 mi WNW 9.2 mph - N/A   Clear
2:35 AM 64.4 °F 53.6 °F 68% 29.84 in 10.0 mi WNW 8.1 mph - N/A   Clear
2:52 AM 62.6 °F 53.6 °F 72% 29.84 in 10.0 mi WNW 9.2 mph - N/A   Clear
3:15 AM 62.6 °F 53.6 °F 72% 29.84 in 10.0 mi WNW 8.1 mph - N/A   Clear
3:35 AM 62.6 °F 53.6 °F 72% 29.84 in 10.0 mi WNW 9.2 mph - N/A   Clear
3:53 AM 62.6 °F 53.6 °F 72% 29.84 in 10.0 mi WNW 10.4 mph - N/A   Clear
4:14 AM 62.6 °F 55.4 °F 77% 29.84 in 10.0 mi WNW 10.4 mph - N/A   Clear
4:35 AM 62.6 °F 55.4 °F 77% 29.84 in 10.0 mi WNW 11.5 mph 17.3 mph N/A   Clear
4:53 AM 62.6 °F 55.4 °F 77% 29.84 in 10.0 mi WNW 16.1 mph 23.0 mph N/A   Clear
5:15 AM 62.6 °F 55.4 °F 77% 29.84 in 10.0 mi WNW 13.8 mph 20.7 mph N/A   Clear
5:35 AM 60.8 °F 53.6 °F 77% 29.85 in 10.0 mi WNW 13.8 mph 20.7 mph N/A   Clear
5:52 AM 60.8 °F 53.6 °F 77% 29.85 in 10.0 mi WNW 12.7 mph 18.4 mph N/A   Clear
6:15 AM 60.8 °F 53.6 °F 77% 29.86 in 10.0 mi WNW 11.5 mph - N/A   Clear
6:35 AM 60.8 °F 55.4 °F 82% 29.85 in 10.0 mi WNW 12.7 mph 23.0 mph N/A   Clear
6:53 AM 60.8 °F 55.4 °F 82% 29.86 in 10.0 mi WNW 15.0 mph 24.2 mph N/A   Clear
7:15 AM 62.6 °F 55.4 °F 77% 29.86 in 10.0 mi NW 16.1 mph 23.0 mph N/A   Clear
7:35 AM 62.6 °F 55.4 °F 77% 29.86 in 10.0 mi NW 20.7 mph 27.6 mph N/A   Clear
7:52 AM 62.6 °F 55.4 °F 77% 29.86 in 10.0 mi NW 18.4 mph 24.2 mph N/A   Scattered Clouds
8:14 AM 64.4 °F 55.4 °F 73% 29.86 in 10.0 mi NW 18.4 mph 27.6 mph N/A   Scattered Clouds
8:35 AM 62.6 °F 55.4 °F 77% 29.86 in 10.0 mi NW 21.9 mph 31.1 mph N/A   Overcast
8:53 AM 64.4 °F 55.4 °F 73% 29.86 in 10.0 mi WNW 24.2 mph 29.9 mph N/A   Mostly Cloudy
9:15 AM 64.4 °F 55.4 °F 73% 29.87 in 10.0 mi NW 21.9 mph 26.5 mph N/A   Mostly Cloudy
9:34 AM 64.4 °F 55.4 °F 73% 29.86 in 10.0 mi NW 18.4 mph 28.8 mph N/A   Mostly Cloudy
9:53 AM 64.4 °F 55.4 °F 73% 29.87 in 10.0 mi NW 18.4 mph 28.8 mph N/A   Overcast
10:15 AM 64.4 °F 55.4 °F 73% 29.86 in 10.0 mi NW 18.4 mph 28.8 mph N/A   Overcast
10:34 AM 64.4 °F 57.2 °F 77% 29.86 in 10.0 mi NNW 18.4 mph 25.3 mph N/A   Overcast
10:53 AM 64.4 °F 57.2 °F 77% 29.87 in 10.0 mi NW 18.4 mph 27.6 mph N/A   Overcast
11:15 AM 64.4 °F 57.2 °F 77% 29.87 in 10.0 mi NW 15.0 mph 19.6 mph N/A   Overcast
11:35 AM 66.2 °F 57.2 °F 73% 29.87 in 10.0 mi NNW 17.3 mph 23.0 mph N/A   Overcast
11:53 AM 64.4 °F 57.2 °F 77% 29.88 in 10.0 mi NNW 21.9 mph 26.5 mph N/A   Overcast
12:14 PM 64.4 °F 57.2 °F 77% 29.88 in 10.0 mi NNW 16.1 mph 25.3 mph N/A   Overcast
12:35 PM 66.2 °F 57.2 °F 73% 29.88 in 10.0 mi NW 20.7 mph 26.5 mph N/A   Overcast
12:52 PM 66.2 °F 57.2 °F 73% 29.89 in 10.0 mi NW 15.0 mph 21.9 mph N/A   Overcast
1:14 PM 68.0 °F 59.0 °F 73% 29.88 in 10.0 mi NW 17.3 mph 25.3 mph N/A   Overcast
1:34 PM 69.8 °F 57.2 °F 64% 29.88 in 10.0 mi NNW 15.0 mph 27.6 mph N/A   Mostly Cloudy
1:52 PM 69.8 °F 57.2 °F 64% 29.87 in 10.0 mi NNW 20.7 mph 28.8 mph N/A   Scattered Clouds
2:14 PM 71.6 °F 57.2 °F 60% 29.87 in 10.0 mi NNW 20.7 mph 28.8 mph N/A   Scattered Clouds
2:34 PM 71.6 °F 57.2 °F 60% 29.87 in 10.0 mi NNW 20.7 mph 27.6 mph N/A   Scattered Clouds
2:53 PM 73.4 °F 57.2 °F 57% 29.86 in 10.0 mi NW 17.3 mph 25.3 mph N/A   Scattered Clouds
3:15 PM 73.4 °F 57.2 °F 57% 29.86 in 10.0 mi NNW 19.6 mph 25.3 mph N/A   Scattered Clouds
3:35 PM 73.4 °F 57.2 °F 57% 29.86 in 10.0 mi WNW 19.6 mph 26.5 mph N/A   Clear
3:53 PM 75.2 °F 57.2 °F 53% 29.86 in 10.0 mi NW 20.7 mph 27.6 mph N/A   Scattered Clouds
4:15 PM 73.4 °F 57.2 °F 57% 29.86 in 10.0 mi NW 21.9 mph 29.9 mph N/A   Scattered Clouds
4:35 PM 73.4 °F 55.4 °F 53% 29.86 in 10.0 mi NNW 21.9 mph 26.5 mph N/A   Clear
4:52 PM 73.4 °F 57.2 °F 57% 29.86 in 10.0 mi NNW 18.4 mph 26.5 mph N/A   Scattered Clouds
5:14 PM 75.2 °F 57.2 °F 53% 29.86 in 10.0 mi NW 20.7 mph 27.6 mph N/A   Scattered Clouds
5:34 PM 75.2 °F 55.4 °F 50% 29.86 in 10.0 mi NW 21.9 mph 33.4 mph N/A   Scattered Clouds
5:53 PM 73.4 °F 55.4 °F 53% 29.86 in 10.0 mi NNW 20.7 mph 31.1 mph N/A   Scattered Clouds
6:15 PM 73.4 °F 57.2 °F 57% 29.86 in 10.0 mi NNW 16.1 mph 23.0 mph N/A   Scattered Clouds
6:34 PM 73.4 °F 55.4 °F 53% 29.86 in 10.0 mi NNW 17.3 mph 26.5 mph N/A   Clear
6:52 PM 73.4 °F 57.2 °F 57% 29.86 in 10.0 mi NNW 19.6 mph 24.2 mph N/A   Clear
7:15 PM 71.6 °F 57.2 °F 60% 29.86 in 10.0 mi NNW 16.1 mph - N/A   Clear
7:35 PM 71.6 °F 57.2 °F 60% 29.87 in 10.0 mi NNW 15.0 mph 23.0 mph N/A   Clear
7:52 PM 71.6 °F 57.2 °F 60% 29.88 in 10.0 mi North 10.4 mph - N/A   Clear
8:14 PM 68.0 °F 57.2 °F 68% 29.88 in 10.0 mi North 8.1 mph - N/A   Clear
8:35 PM 68.0 °F 59.0 °F 73% 29.88 in 10.0 mi North 6.9 mph - N/A   Clear
8:53 PM 66.2 °F 57.2 °F 73% 29.87 in 10.0 mi North 4.6 mph - N/A   Clear
9:14 PM 64.4 °F 57.2 °F 77% 29.87 in 10.0 mi North 3.5 mph - N/A   Clear
9:35 PM 64.4 °F 57.2 °F 77% 29.87 in 10.0 mi North 6.9 mph - N/A   Scattered Clouds
9:53 PM 64.4 °F 57.2 °F 77% 29.88 in 10.0 mi North 6.9 mph - N/A   Scattered Clouds
10:15 PM 64.4 °F 57.2 °F 77% 29.88 in 10.0 mi NNW 4.6 mph - N/A   Clear
10:35 PM 62.6 °F 57.2 °F 82% 29.88 in 10.0 mi NNW 5.8 mph - N/A   Clear
10:52 PM 62.6 °F 57.2 °F 82% 29.88 in 10.0 mi NNW 8.1 mph - N/A   Clear
11:14 PM 62.6 °F 57.2 °F 82% 29.88 in 10.0 mi NNW 6.9 mph - N/A   Clear
11:35 PM 62.6 °F 55.4 °F 77% 29.88 in 10.0 mi NNW 10.4 mph - N/A   Clear
11:52 PM 62.6 °F 55.4 °F 77% 29.88 in 10.0 mi NNW 9.2 mph - N/A   Clear